Lid_Strength_Index
-1 -1 -1 -1 -0 -1 -0 -0 -0 -0 0 -0 -1 -1 -1 -1 -1 2 6 3 3 -0 1 7 7 7 7 8 8 9 13 14 13 13 12 11 11 11 10 9 8 8 7 6 5
-1 -1 -1 -1 -1 -0 -0 -0 -0 -0 -0 -0 -0 -1 -1 -1 3 4 0 -2 -1 -1 6 7 8 8 9 9 9 11 13 13 12 13 12 10 11 10 10 11 9 8 5 4 5
-1 -1 -1 -1 -1 -1 -0 1 0 -0 0 -1 -1 -0 -1 0 6 6 -1 -2 -1 1 6 7 8 9 10 10 11 12 13 12 12 11 11 10 12 11 11 11 10 9 7 5 6
-1 -1 -1 -1 -1 -1 -1 -1 -0 0 0 0 -1 0 -1 2 12 5 -1 -1 -1 5 6 7 9 11 12 11 10 12 11 11 10 10 11 11 11 12 11 10 10 8 6 5 5
-1 -1 -1 -1 -1 -1 -1 -0 -0 1 1 1 0 -1 2 8 7 3 0 0 5 6 7 8 10 11 12 11 11 12 12 12 10 11 11 10 12 12 11 10 10 9 5 5 4
-1 -1 -1 -1 -1 -0 -0 -0 -0 1 2 1 0 -0 5 11 4 4 5 5 5 6 7 8 9 9 11 12 12 11 12 12 11 11 11 12 13 12 12 11 11 9 6 5 5
-1 -1 -1 -1 -1 -0 0 0 0 0 0 -0 -0 1 8 9 4 4 5 6 5 6 7 7 7 9 10 11 10 11 13 13 12 12 12 11 14 12 12 12 11 11 10 6 5
-1 -1 -1 -1 -1 -0 -0 1 1 -1 -1 -0 -1 4 10 4 4 5 5 6 5 6 6 7 7 7 10 10 11 13 14 16 14 12 12 13 16 13 12 12 12 12 12 11 8
-1 0 -0 -1 -1 -0 -0 -0 1 0 -1 0 5 8 10 2 5 4 5 6 6 6 6 5 7 10 11 13 15 14 18 17 14 12 12 13 15 13 12 12 11 12 12 11 11
-0 0 -0 -0 -0 -1 -1 -1 -1 2 1 2 5 10 9 8 5 5 5 5 7 7 8 8 10 12 14 15 18 17 16 16 16 13 13 14 13 12 11 12 11 12 11 11 11
-0 -0 -0 -0 -0 -0 1 3 7 9 7 10 10 11 8 5 4 6 5 6 7 9 12 11 12 15 13 13 15 15 16 16 15 13 13 13 14 12 11 12 12 12 12 12 11
0 -0 -0 -0 0 0 2 6 7 7 10 7 7 9 6 5 8 7 6 8 10 13 11 13 15 12 11 12 14 15 16 17 15 13 13 14 14 13 13 12 11 11 12 12 12
2 2 1 -0 0 2 3 4 1 4 10 9 7 8 7 6 9 8 7 9 11 12 13 14 13 11 12 14 14 15 16 16 15 15 15 15 16 15 13 13 12 12 11 11 11
3 3 2 -0 2 2 4 2 2 3 13 12 9 8 7 7 10 6 7 8 11 12 12 13 11 12 13 14 13 16 13 14 14 16 18 16 20 17 15 14 13 12 12 13 12
4 4 2 1 3 4 3 2 2 6 19 10 10 6 7 10 9 9 7 9 11 12 12 14 13 13 13 13 12 13 12 14 15 17 18 18 19 17 16 15 13 13 13 13 12
4 4 3 2 2 4 3 2 4 13 20 12 10 11 11 11 10 9 9 8 10 12 13 13 12 12 12 12 12 12 13 15 16 17 20 18 18 19 17 15 15 13 13 11 10
4 4 5 4 4 3 2 5 14 19 12 13 13 12 13 12 11 11 11 12 13 15 16 14 14 12 12 13 13 14 15 19 20 21 21 19 19 18 15 14 14 14 12 12 12
4 5 6 5 4 3 3 9 17 14 13 10 11 13 15 13 13 13 13 13 12 15 16 16 17 13 12 12 13 14 14 18 23 22 21 18 20 17 14 13 13 14 13 12 11
6 9 8 6 4 3 7 15 15 13 11 11 11 14 14 13 14 14 14 15 13 13 15 16 16 13 13 12 11 14 16 14 18 25 22 19 17 14 14 13 12 11 11 11 11
8 10 11 6 4 5 9 14 12 10 9 10 14 13 16 15 15 15 15 14 14 13 13 15 17 14 13 12 12 13 12 16 18 24 25 20 20 18 16 13 12 12 12 11 11
8 13 10 5 5 7 13 12 11 9 8 11 12 13 13 14 14 15 15 13 11 12 11 15 16 17 14 15 15 14 15 15 15 18 22 24 20 15 14 13 12 12 11 11 11
9 14 7 4 11 10 12 11 9 10 8 9 10 11 12 13 13 14 14 12 11 11 14 13 15 18 16 15 14 14 14 14 16 19 18 18 17 13 13 12 11 12 11 11 10
11 11 6 4 14 13 12 11 9 9 9 10 11 10 11 12 14 13 12 9 9 11 12 12 16 22 19 16 15 16 16 14 15 16 18 20 17 13 13 12 12 11 11 11 11
10 13 10 7 11 13 12 12 11 9 9 9 10 9 11 12 11 12 12 10 9 9 9 9 13 17 18 18 16 16 15 15 15 17 17 18 17 15 14 13 12 11 10 10 10
8 13 12 14 11 12 12 12 12 12 10 8 10 11 11 13 13 13 11 11 10 9 9 10 14 14 14 13 14 16 16 15 16 15 17 16 16 14 12 12 11 11 10 10 11
11 11 11 12 12 12 12 13 12 11 11 11 11 10 10 12 12 13 11 12 12 10 10 10 15 14 16 13 13 15 15 15 15 15 15 16 15 12 11 11 12 11 11 11 11
7 7 9 11 12 13 13 13 12 11 11 10 9 10 11 10 9 9 9 9 9 11 11 12 14 16 23 15 15 17 15 15 15 14 14 16 13 11 13 11 11 12 12 12 12